New Orleans Lakefront, LA

4:09 PM CDT on June 24, 2018 (GMT -0500)
Lakefront

Weather History for KNEW - September, 2017

Change the Weather History Date:

Thursday, September 14, 2017

  Actual Average Record
Temperature  
Mean Temperature 76 °F 80 °F  
Max Temperature 87 °F 88 °F 97 °F (1980)
Min Temperature 65 °F 73 °F 57 °F (1964)
Degree Days  
Heating Degree Days 0 0  
Month to date heating degree days 0 0  
Since 1 July heating degree days 0 0  
Cooling Degree Days 11 15  
Month to date cooling degree days 183 231  
Year to date cooling degree days 2536 2477  
Growing Degree Days 28 (Base 50)    
Moisture  
Dew Point 68 °F    
Average Humidity 71    
Maximum Humidity 93    
Minimum Humidity 48    
Precipitation  
Precipitation 0.00 in 0.17 in 1.45 in (1977)
Month to date precipitation 0.08 2.63  
Year to date precipitation 63.73 46.84  
Snow  
Snow 0.00 in - - ()
Month to date snowfall 0.0  
Since 1 July snowfall 0.0  
Since 1 September snowfall 0.0  
Snow Depth 0.00 in    
Sea Level Pressure  
Sea Level Pressure 29.92 in    
Wind  
Wind Speed 4 mph (East)    
Max Wind Speed 12 mph    
Max Gust Speed 14 mph    
Visibility 10 miles    
Events      
T = Trace of Precipitation, MM = Missing Value Source: NWS Daily Summary

Daily Weather History Graph

Daily Weather History Graph

Search for Another Location

Airport or City:

Astronomy

Sep. 14, 2017 Rise Set
Actual Time 6:44 AM CDT 7:06 PM CDT
Civil Twilight 6:20 AM CDT 7:30 PM CDT
Nautical Twilight 5:52 AM CDT 7:58 PM CDT
Astronomical Twilight 5:23 AM CDT 8:26 PM CDT
Moon 12:59 AM CDT (9/14) 3:04 PM CDT (9/14)
Length of Visible Light 13h 10m
Length of Day
12h 22m
Waning Crescent, 34% of the Moon is Illuminated
Sep 14
Waning Crescent
Sep 20
New
Sep 27
First Quarter
Oct 5
Full
Oct 12
Last Quarter

Hourly Weather History & Observations

Time (CDT) Temp. Heat Index Dew Point Humidity Pressure Visibility Wind Dir Wind Speed Gust Speed Precip Events Conditions
12:53 AM 73.0 °F - 66.9 °F 81% 29.88 in 10.0 mi South 6.9 mph - N/A   Clear
1:53 AM 73.9 °F - 66.0 °F 76% 29.88 in 10.0 mi SSW 6.9 mph - N/A   Clear
2:53 AM 73.9 °F - 66.9 °F 79% 29.88 in 10.0 mi SW 5.8 mph - N/A   Clear
3:53 AM 72.0 °F - 66.0 °F 81% 29.89 in 10.0 mi SSE 3.5 mph - N/A   Clear
4:53 AM 71.1 °F - 66.9 °F 87% 29.89 in 9.0 mi Calm Calm - N/A   Clear
5:53 AM 71.1 °F - 66.9 °F 87% 29.91 in 8.0 mi Calm Calm - N/A   Clear
6:53 AM 71.1 °F - 68.0 °F 90% 29.93 in 6.0 mi Calm Calm - N/A   Clear
7:53 AM 73.9 °F - 68.0 °F 82% 29.94 in 7.0 mi Calm Calm - N/A   Clear
8:53 AM 78.1 °F - 66.9 °F 68% 29.95 in 10.0 mi Calm Calm - N/A   Clear
9:53 AM 79.0 °F - 68.0 °F 69% 29.96 in 10.0 mi NE 4.6 mph - N/A   Clear
10:53 AM 80.1 °F 82.7 °F 68.0 °F 67% 29.96 in 10.0 mi NNE 5.8 mph - N/A   Clear
11:53 AM 82.0 °F 84.9 °F 68.0 °F 62% 29.95 in 10.0 mi NNE 6.9 mph - N/A   Clear
12:53 PM 84.0 °F 86.3 °F 66.0 °F 55% 29.94 in 10.0 mi NNE 8.1 mph - N/A   Partly Cloudy
1:53 PM 84.0 °F 85.8 °F 64.9 °F 53% 29.93 in 10.0 mi NNE 8.1 mph - N/A   Partly Cloudy
2:53 PM 84.9 °F 86.6 °F 64.9 °F 51% 29.91 in 10.0 mi NNE 9.2 mph - N/A   Partly Cloudy
3:53 PM 84.9 °F 87.1 °F 66.0 °F 53% 29.89 in 10.0 mi NNE 10.4 mph - N/A   Partly Cloudy
4:53 PM 82.9 °F 87.5 °F 71.1 °F 67% 29.89 in 10.0 mi East 9.2 mph - N/A   Overcast
5:53 PM 82.0 °F 86.3 °F 71.1 °F 69% 29.89 in 10.0 mi East 10.4 mph - N/A   Scattered Clouds
6:53 PM 81.0 °F 84.9 °F 71.1 °F 72% 29.90 in 10.0 mi ESE 8.1 mph - N/A   Clear
7:53 PM 80.1 °F 83.2 °F 70.0 °F 71% 29.90 in 10.0 mi SE 8.1 mph - N/A   Clear
8:53 PM 79.0 °F - 70.0 °F 74% 29.92 in 10.0 mi ESE 6.9 mph - N/A   Clear
9:53 PM 78.1 °F - 71.1 °F 79% 29.93 in 10.0 mi ESE 4.6 mph - N/A   Clear
10:53 PM 78.1 °F - 72.0 °F 81% 29.94 in 10.0 mi ESE 6.9 mph - N/A   Mostly Cloudy
11:53 PM 78.1 °F - 73.0 °F 84% 29.93 in 10.0 mi ESE 6.9 mph - N/A   Overcast